Вернуться в каталог

STARLINK-37376

АктивенСвязьVLEO
NORAD 69378·PAYLOAD·🇺🇸 United States

Запущен Jun 4, 2026 с Cape Canaveral Space Force Station

Loading…

Ближайшие Пролёты (ближайшие 24 часа)

TLE

СвежийSource: CelesTrak SupGP

Эпоха: Sep 14, 2026, 23:12 UTC

1 69378C 26123AB  26257.96715278 -.00093991  00000+0 -27762-2 0  2579
2 69378  53.1583 167.9173 0001298  88.9329 353.3082 15.34445811    14

Отслеживайте STARLINK-37376 в реальном времени с AllMySat

Download on the App Store